******** Week 93 almanac for PRN-01 ******** ID: 01 Health: 000 Eccentricity: 0.1028394699E-001 Time of Applicability(s): 233472.0000 Orbital Inclination(rad): 0.9827987208 Rate of Right Ascen(r/s): -0.7771752296E-008 SQRT(A) (m 1/2): 5153.645996 Right Ascen at Week(rad): -0.1182955350E+001 Argument of Perigee(rad): 0.821116397 Mean Anom(rad): 0.2187102320E+001 Af0(s): 0.7772445679E-003 Af1(s/s): -0.7275957614E-011 week: 93 ******** Week 93 almanac for PRN-02 ******** ID: 02 Health: 000 Eccentricity: 0.2035665512E-001 Time of Applicability(s): 233472.0000 Orbital Inclination(rad): 0.9615806506 Rate of Right Ascen(r/s): -0.7943188009E-008 SQRT(A) (m 1/2): 5153.548340 Right Ascen at Week(rad): -0.1264151470E+001 Argument of Perigee(rad): -1.558525979 Mean Anom(rad): 0.2430178354E+001 Af0(s): -0.5674362183E-003 Af1(s/s): -0.3637978807E-011 week: 93 ******** Week 93 almanac for PRN-03 ******** ID: 03 Health: 000 Eccentricity: 0.3249168396E-002 Time of Applicability(s): 233472.0000 Orbital Inclination(rad): 0.9683697140 Rate of Right Ascen(r/s): -0.7954617056E-008 SQRT(A) (m 1/2): 5153.617676 Right Ascen at Week(rad): -0.1442219076E+000 Argument of Perigee(rad): 0.869282120 Mean Anom(rad): 0.1022977557E+001 Af0(s): -0.6008148193E-004 Af1(s/s): -0.1091393642E-010 week: 93 ******** Week 93 almanac for PRN-04 ******** ID: 04 Health: 000 Eccentricity: 0.1064300537E-002 Time of Applicability(s): 233472.0000 Orbital Inclination(rad): 0.9602024647 Rate of Right Ascen(r/s): -0.7806039439E-008 SQRT(A) (m 1/2): 5153.547363 Right Ascen at Week(rad): 0.9354507709E+000 Argument of Perigee(rad): -3.054730617 Mean Anom(rad): -0.2361096787E+001 Af0(s): -0.1735687256E-003 Af1(s/s): -0.3637978807E-011 week: 93 ******** Week 93 almanac for PRN-05 ******** ID: 05 Health: 000 Eccentricity: 0.5998134613E-002 Time of Applicability(s): 233472.0000 Orbital Inclination(rad): 0.9552949246 Rate of Right Ascen(r/s): -0.8103194673E-008 SQRT(A) (m 1/2): 5153.746094 Right Ascen at Week(rad): -0.1793439257E+000 Argument of Perigee(rad): 0.887918713 Mean Anom(rad): -0.1272616078E+001 Af0(s): -0.3147125244E-004 Af1(s/s): 0.0000000000E+000 week: 93 ******** Week 93 almanac for PRN-06 ******** ID: 06 Health: 000 Eccentricity: 0.2246856689E-002 Time of Applicability(s): 233472.0000 Orbital Inclination(rad): 0.9822893912 Rate of Right Ascen(r/s): -0.7771752296E-008 SQRT(A) (m 1/2): 5153.647949 Right Ascen at Week(rad): -0.1191212481E+001 Argument of Perigee(rad): -1.111601275 Mean Anom(rad): 0.2563962750E+001 Af0(s): -0.4768371582E-005 Af1(s/s): 0.0000000000E+000 week: 93 ******** Week 93 almanac for PRN-07 ******** ID: 07 Health: 000 Eccentricity: 0.1435089111E-001 Time of Applicability(s): 233472.0000 Orbital Inclination(rad): 0.9517595783 Rate of Right Ascen(r/s): -0.7966046104E-008 SQRT(A) (m 1/2): 5153.556641 Right Ascen at Week(rad): 0.1958968368E+001 Argument of Perigee(rad): -2.355889641 Mean Anom(rad): 0.1548416910E+001 Af0(s): 0.2765655518E-004 Af1(s/s): 0.1455191523E-010 week: 93 ******** Week 93 almanac for PRN-08 ******** ID: 08 Health: 000 Eccentricity: 0.6109714508E-002 Time of Applicability(s): 233472.0000 Orbital Inclination(rad): 0.9683816982 Rate of Right Ascen(r/s): -0.7840326581E-008 SQRT(A) (m 1/2): 5153.734863 Right Ascen at Week(rad): -0.2256183886E+001 Argument of Perigee(rad): -0.040117193 Mean Anom(rad): -0.1864911676E+001 Af0(s): -0.7629394531E-005 Af1(s/s): 0.0000000000E+000 week: 93 ******** Week 93 almanac for PRN-09 ******** ID: 09 Health: 000 Eccentricity: 0.2009868622E-002 Time of Applicability(s): 233472.0000 Orbital Inclination(rad): 0.9530478824 Rate of Right Ascen(r/s): -0.7886042771E-008 SQRT(A) (m 1/2): 5153.529785 Right Ascen at Week(rad): 0.8856413361E+000 Argument of Perigee(rad): 1.800801691 Mean Anom(rad): -0.1470971104E+001 Af0(s): -0.3147125244E-003 Af1(s/s): -0.3637978807E-011 week: 93 ******** Week 93 almanac for PRN-10 ******** ID: 10 Health: 000 Eccentricity: 0.6411075592E-002 Time of Applicability(s): 233472.0000 Orbital Inclination(rad): 0.9682678481 Rate of Right Ascen(r/s): -0.7954617056E-008 SQRT(A) (m 1/2): 5153.618652 Right Ascen at Week(rad): -0.1471595407E+000 Argument of Perigee(rad): -2.613196942 Mean Anom(rad): 0.1620293423E+000 Af0(s): -0.4291534424E-004 Af1(s/s): -0.7275957614E-011 week: 93 ******** Week 93 almanac for PRN-12 ******** ID: 12 Health: 000 Eccentricity: 0.8235931396E-002 Time of Applicability(s): 233472.0000 Orbital Inclination(rad): 0.9755123120 Rate of Right Ascen(r/s): -0.7874613724E-008 SQRT(A) (m 1/2): 5153.519043 Right Ascen at Week(rad): 0.3068023369E+001 Argument of Perigee(rad): 1.172408858 Mean Anom(rad): 0.8796818058E+000 Af0(s): 0.1049041748E-004 Af1(s/s): -0.3637978807E-011 week: 93 ******** Week 93 almanac for PRN-13 ******** ID: 13 Health: 000 Eccentricity: 0.4916191101E-002 Time of Applicability(s): 233472.0000 Orbital Inclination(rad): 0.9678543923 Rate of Right Ascen(r/s): -0.7714607059E-008 SQRT(A) (m 1/2): 5153.635254 Right Ascen at Week(rad): 0.1032269826E+001 Argument of Perigee(rad): 1.039990663 Mean Anom(rad): -0.2564626377E+001 Af0(s): 0.8773803711E-004 Af1(s/s): 0.3637978807E-011 week: 93 ******** Week 93 almanac for PRN-14 ******** ID: 14 Health: 000 Eccentricity: 0.2813339233E-003 Time of Applicability(s): 233472.0000 Orbital Inclination(rad): 0.9590160264 Rate of Right Ascen(r/s): -0.8046049436E-008 SQRT(A) (m 1/2): 5153.685059 Right Ascen at Week(rad): 0.3042910426E+001 Argument of Perigee(rad): 1.988583634 Mean Anom(rad): 0.1917804053E+001 Af0(s): 0.8773803711E-004 Af1(s/s): 0.3637978807E-011 week: 93 ******** Week 93 almanac for PRN-15 ******** ID: 15 Health: 000 Eccentricity: 0.1310491562E-001 Time of Applicability(s): 233472.0000 Orbital Inclination(rad): 0.9287318901 Rate of Right Ascen(r/s): -0.8137481816E-008 SQRT(A) (m 1/2): 5153.746582 Right Ascen at Week(rad): 0.7899450532E+000 Argument of Perigee(rad): 0.967619427 Mean Anom(rad): -0.2913179694E+001 Af0(s): -0.1754760742E-003 Af1(s/s): 0.3637978807E-011 week: 93 ******** Week 93 almanac for PRN-16 ******** ID: 16 Health: 000 Eccentricity: 0.1207113266E-001 Time of Applicability(s): 233472.0000 Orbital Inclination(rad): 0.9756501306 Rate of Right Ascen(r/s): -0.7874613724E-008 SQRT(A) (m 1/2): 5153.585938 Right Ascen at Week(rad): 0.3086817256E+001 Argument of Perigee(rad): 0.642662300 Mean Anom(rad): -0.9933109833E+000 Af0(s): -0.2670288086E-003 Af1(s/s): -0.7275957614E-011 week: 93 ******** Week 93 almanac for PRN-17 ******** ID: 17 Health: 000 Eccentricity: 0.1359558105E-001 Time of Applicability(s): 233472.0000 Orbital Inclination(rad): 0.9829545157 Rate of Right Ascen(r/s): -0.7680319916E-008 SQRT(A) (m 1/2): 5153.491699 Right Ascen at Week(rad): -0.2180085182E+001 Argument of Perigee(rad): -1.586251857 Mean Anom(rad): -0.2002327668E+001 Af0(s): 0.3824234009E-003 Af1(s/s): 0.3637978807E-011 week: 93 ******** Week 93 almanac for PRN-18 ******** ID: 18 Health: 000 Eccentricity: 0.1188755035E-002 Time of Applicability(s): 233472.0000 Orbital Inclination(rad): 0.9664762064 Rate of Right Ascen(r/s): -0.7920329914E-008 SQRT(A) (m 1/2): 5153.643555 Right Ascen at Week(rad): -0.1169283222E+001 Argument of Perigee(rad): 3.030326241 Mean Anom(rad): 0.2321655580E+001 Af0(s): 0.3423690796E-003 Af1(s/s): 0.3637978807E-011 week: 93 ******** Week 93 almanac for PRN-19 ******** ID: 19 Health: 000 Eccentricity: 0.8987903595E-002 Time of Applicability(s): 233472.0000 Orbital Inclination(rad): 0.9813366453 Rate of Right Ascen(r/s): -0.7703178011E-008 SQRT(A) (m 1/2): 5153.572266 Right Ascen at Week(rad): -0.2134776947E+001 Argument of Perigee(rad): 1.771666542 Mean Anom(rad): 0.5708854062E+000 Af0(s): -0.4959106445E-004 Af1(s/s): 0.3637978807E-011 week: 93 ******** Week 93 almanac for PRN-20 ******** ID: 20 Health: 000 Eccentricity: 0.5874633789E-002 Time of Applicability(s): 233472.0000 Orbital Inclination(rad): 0.9370010053 Rate of Right Ascen(r/s): -0.8297488481E-008 SQRT(A) (m 1/2): 5153.608398 Right Ascen at Week(rad): -0.2857848153E+000 Argument of Perigee(rad): 2.832459572 Mean Anom(rad): 0.1595055020E+001 Af0(s): 0.5254745483E-003 Af1(s/s): 0.0000000000E+000 week: 93 ******** Week 93 almanac for PRN-21 ******** ID: 21 Health: 000 Eccentricity: 0.2420520782E-001 Time of Applicability(s): 233472.0000 Orbital Inclination(rad): 0.9556784198 Rate of Right Ascen(r/s): -0.7954617056E-008 SQRT(A) (m 1/2): 5153.681641 Right Ascen at Week(rad): -0.1263254900E+001 Argument of Perigee(rad): -1.208900823 Mean Anom(rad): -0.1674946731E+001 Af0(s): 0.8869171143E-004 Af1(s/s): 0.3637978807E-011 week: 93 ******** Week 93 almanac for PRN-22 ******** ID: 22 Health: 000 Eccentricity: 0.6881713867E-002 Time of Applicability(s): 233472.0000 Orbital Inclination(rad): 0.9337053434 Rate of Right Ascen(r/s): -0.8297488481E-008 SQRT(A) (m 1/2): 5153.564941 Right Ascen at Week(rad): -0.2391276062E+000 Argument of Perigee(rad): -1.050842004 Mean Anom(rad): -0.2921169052E+001 Af0(s): -0.6952285767E-003 Af1(s/s): 0.7275957614E-011 week: 93 ******** Week 93 almanac for PRN-23 ******** ID: 23 Health: 000 Eccentricity: 0.1079082489E-002 Time of Applicability(s): 233472.0000 Orbital Inclination(rad): 0.9632164973 Rate of Right Ascen(r/s): -0.8011762293E-008 SQRT(A) (m 1/2): 5153.588379 Right Ascen at Week(rad): -0.1699535365E+000 Argument of Perigee(rad): 2.360661985 Mean Anom(rad): 0.1958581127E+001 Af0(s): 0.1163482666E-003 Af1(s/s): 0.0000000000E+000 week: 93 ******** Week 93 almanac for PRN-24 ******** ID: 24 Health: 000 Eccentricity: 0.1084709167E-001 Time of Applicability(s): 233472.0000 Orbital Inclination(rad): 0.9350895214 Rate of Right Ascen(r/s): -0.8126052768E-008 SQRT(A) (m 1/2): 5153.561523 Right Ascen at Week(rad): 0.1882808618E+001 Argument of Perigee(rad): 0.723655062 Mean Anom(rad): 0.2518907308E+001 Af0(s): 0.3814697266E-005 Af1(s/s): 0.0000000000E+000 week: 93 ******** Week 93 almanac for PRN-25 ******** ID: 25 Health: 000 Eccentricity: 0.9685039520E-002 Time of Applicability(s): 233472.0000 Orbital Inclination(rad): 0.9628090336 Rate of Right Ascen(r/s): -0.8011762293E-008 SQRT(A) (m 1/2): 5153.625977 Right Ascen at Week(rad): 0.2996179065E+001 Argument of Perigee(rad): 0.934084944 Mean Anom(rad): 0.5405417232E+000 Af0(s): 0.6294250488E-004 Af1(s/s): 0.7275957614E-011 week: 93 ******** Week 93 almanac for PRN-26 ******** ID: 26 Health: 000 Eccentricity: 0.5636215210E-002 Time of Applicability(s): 233472.0000 Orbital Inclination(rad): 0.9437601081 Rate of Right Ascen(r/s): -0.8228914196E-008 SQRT(A) (m 1/2): 5153.683105 Right Ascen at Week(rad): 0.2956506037E+001 Argument of Perigee(rad): 0.253547625 Mean Anom(rad): -0.6400999226E-001 Af0(s): 0.3242492676E-004 Af1(s/s): 0.7275957614E-011 week: 93 ******** Week 93 almanac for PRN-27 ******** ID: 27 Health: 000 Eccentricity: 0.8884906769E-002 Time of Applicability(s): 233472.0000 Orbital Inclination(rad): 0.9768964900 Rate of Right Ascen(r/s): -0.7760323249E-008 SQRT(A) (m 1/2): 5153.632324 Right Ascen at Week(rad): -0.2239985708E+001 Argument of Perigee(rad): 0.566559101 Mean Anom(rad): -0.1901845185E+001 Af0(s): -0.5912780762E-004 Af1(s/s): -0.7275957614E-011 week: 93 ******** Week 93 almanac for PRN-28 ******** ID: 28 Health: 000 Eccentricity: 0.1804590225E-001 Time of Applicability(s): 233472.0000 Orbital Inclination(rad): 0.9747153611 Rate of Right Ascen(r/s): -0.7886042771E-008 SQRT(A) (m 1/2): 5153.617676 Right Ascen at Week(rad): 0.3090413272E+001 Argument of Perigee(rad): -1.355554779 Mean Anom(rad): -0.1180667112E+001 Af0(s): 0.6275177002E-003 Af1(s/s): -0.3637978807E-011 week: 93 ******** Week 93 almanac for PRN-29 ******** ID: 29 Health: 000 Eccentricity: 0.1453876495E-002 Time of Applicability(s): 233472.0000 Orbital Inclination(rad): 0.9847341731 Rate of Right Ascen(r/s): -0.7680319916E-008 SQRT(A) (m 1/2): 5153.653809 Right Ascen at Week(rad): -0.2167881870E+001 Argument of Perigee(rad): 2.193841199 Mean Anom(rad): -0.1837499634E+001 Af0(s): -0.2784729004E-003 Af1(s/s): -0.7275957614E-011 week: 93 ******** Week 93 almanac for PRN-30 ******** ID: 30 Health: 000 Eccentricity: 0.4786014557E-002 Time of Applicability(s): 233472.0000 Orbital Inclination(rad): 0.9370129895 Rate of Right Ascen(r/s): -0.8114623721E-008 SQRT(A) (m 1/2): 5153.699707 Right Ascen at Week(rad): 0.1978070099E+001 Argument of Perigee(rad): -2.850197723 Mean Anom(rad): 0.1519376137E+001 Af0(s): -0.3719329834E-003 Af1(s/s): -0.7275957614E-011 week: 93 ******** Week 93 almanac for PRN-31 ******** ID: 31 Health: 000 Eccentricity: 0.9975910187E-002 Time of Applicability(s): 233472.0000 Orbital Inclination(rad): 0.9561218361 Rate of Right Ascen(r/s): -0.7920329914E-008 SQRT(A) (m 1/2): 5153.672852 Right Ascen at Week(rad): 0.1975503227E+001 Argument of Perigee(rad): 0.236956963 Mean Anom(rad): 0.1091811949E+001 Af0(s): -0.9441375732E-004 Af1(s/s): -0.3637978807E-011 week: 93 ******** Week 93 almanac for PRN-32 ******** ID: 32 Health: 000 Eccentricity: 0.4459381104E-002 Time of Applicability(s): 233472.0000 Orbital Inclination(rad): 0.9570685899 Rate of Right Ascen(r/s): -0.7840326581E-008 SQRT(A) (m 1/2): 5153.577637 Right Ascen at Week(rad): 0.8951141169E+000 Argument of Perigee(rad): -2.456112965 Mean Anom(rad): -0.1156727874E+001 Af0(s): 0.1525878906E-004 Af1(s/s): 0.3637978807E-011 week: 93